Voltar ao catálogo

COSMOS 2208

AtivoNavegaçãoLEO
NORAD 22080·PAYLOAD·🇷🇺 Russia

Lançado Aug 12, 1992 de Plesetsk Cosmodrome

Loading…

Próximas Passagens (próximas 24 horas)

TLE

AtualizadoSource: Space-Track

Época: Sep 14, 2026, 14:33 UTC

1 22080U 92053A   26257.60633862  .00000042  00000-0  25643-4 0  9997
2 22080  74.0401 110.4859 0013859 276.3769  83.5803 14.31539328779430

Acompanhe COSMOS 2208 em tempo real com AllMySat

Download on the App Store